[TLELIST] Archives

 

[list_settings.list_name] Current TLEs

November 24th 2011 PST

HST 1 20580U 90037B 11326.31132196 .00003790 00000-0 27084-3 0 8928 2 20580 028.4700 063.2810 0003036 006.5468 353.5081 15.01859302983446 ISS (ZARYA) 1 25544U 98067A 11326.86086963 .00030439 00000-0 38711-3 0 4839 2 25544 051.6432 082.2312 0031297 080.9301 009.6667 15.58514919745686 CXO 1 25867U 99040B 11327.62500000 -.00000500 00000-0 00000+0 0 6708 2 25867 070.6515 020.3453 8719812 277.3984 355.1526 00.37809175 8372 ____________________________________________________________________ These 2-Line ...Continue Reading

[list_settings.list_name] Current TLEs

November 23rd 2011 PST

HST 1 20580U 90037B 11326.31132196 .00003790 00000-0 27084-3 0 8928 2 20580 028.4700 063.2810 0003036 006.5468 353.5081 15.01859302983446 ISS (ZARYA) 1 25544U 98067A 11326.46805942 .00028247 00000-0 36056-3 0 4790 2 25544 051.6420 084.2035 0030787 079.9749 325.2096 15.58479555745627 CXO 1 25867U 99040B 11327.62500000 -.00000500 00000-0 00000+0 0 6708 2 25867 070.6515 020.3453 8719812 277.3984 355.1526 00.37809175 8372 ____________________________________________________________________ These 2-Line ...Continue Reading

[list_settings.list_name] Current TLEs

November 22nd 2011 PST

HST 1 20580U 90037B 11324.71643569 .00003868 00000-0 27677-3 0 8914 2 20580 028.4696 073.7054 0003038 348.1091 011.9461 15.01848383983203 ISS (ZARYA) 1 25544U 98067A 11325.51477506 .00026894 00000-0 34443-3 0 4723 2 25544 051.6418 088.9886 0030826 076.7153 016.5670 15.58420198745477 CXO 1 25867U 99040B 11325.00000000 -.00000188 00000-0 00000+0 0 6693 2 25867 070.6266 020.5387 8714731 277.3886 357.8251 00.37806598 8368 ____________________________________________________________________ These 2-Line ...Continue Reading

[list_settings.list_name] Current TLEs

November 21st 2011 PST

HST 1 20580U 90037B 11322.78926485 .00003833 00000-0 27427-3 0 8904 2 20580 028.4692 086.3040 0003046 325.5674 034.4772 15.01833969982915 ISS (ZARYA) 1 25544U 98067A 11324.49302016 .00007122 00000-0 96698-4 0 4658 2 25544 051.6388 094.1189 0031027 072.0401 045.1551 15.58347625745319 CXO 1 25867U 99040B 11325.00000000 -.00000188 00000-0 00000+0 0 6693 2 25867 070.6266 020.5387 8714731 277.3886 357.8251 00.37806598 8368 ____________________________________________________________________ These 2-Line ...Continue Reading

[list_settings.list_name] Current TLEs

November 20th 2011 PST

HST 1 20580U 90037B 11322.78926485 .00003833 00000-0 27427-3 0 8904 2 20580 028.4692 086.3040 0003046 325.5674 034.4772 15.01833969982915 ISS (ZARYA) 1 25544U 98067A 11323.46538991 .00008225 00000-0 11084-3 0 4589 2 25544 051.6442 099.2690 0030876 068.5262 039.8190 15.58292711745155 CXO 1 25867U 99040B 11322.33333333 -.00000003 00000-0 00000+0 0 6689 2 25867 070.5965 020.7242 8712881 277.3944 354.7397 00.37805582 8352 ____________________________________________________________________ These 2-Line ...Continue Reading

[list_settings.list_name] Current TLEs

November 19th 2011 PST

HST 1 20580U 90037B 11321.79244620 .00003773 00000-0 26982-3 0 8894 2 20580 028.4692 092.8211 0003105 314.0907 045.9515 15.01826226982768 ISS (ZARYA) 1 25544U 98067A 11322.49211586 .00039390 00000-0 50385-3 0 4527 2 25544 051.6378 104.1495 0031192 062.4164 342.4011 15.58233319745006 CXO 1 25867U 99040B 11322.33333333 -.00000003 00000-0 00000+0 0 6689 2 25867 070.5965 020.7242 8712881 277.3944 354.7397 00.37805582 8352 ____________________________________________________________________ These 2-Line ...Continue Reading

[list_settings.list_name] Current TLEs

November 18th 2011 PST

HST 1 20580U 90037B 11320.79562259 .00003707 00000-0 26491-3 0 8885 2 20580 028.4689 099.3382 0003154 305.4602 054.5787 15.01818525982619 ISS (ZARYA) 1 25544U 98067A 11321.40266037 .00032945 00000-0 39487-3 0 4459 2 25544 051.6410 109.6232 0022112 067.4549 335.9031 15.60329514744831 CXO 1 25867U 99040B 11322.33333333 -.00000003 00000-0 00000+0 0 6689 2 25867 070.5965 020.7242 8712881 277.3944 354.7397 00.37805582 8352 ____________________________________________________________________ These 2-Line ...Continue Reading

[list_settings.list_name] Current TLEs

November 17th 2011 PST

HST 1 20580U 90037B 11317.87157937 .00003609 00000-0 25771-3 0 8873 2 20580 028.4683 118.4462 0003166 275.3438 084.7068 15.01797410982177 ISS (ZARYA) 1 25544U 98067A 11320.24331019 .00028702 00000-0 34635-3 0 4381 2 25544 051.6402 115.4575 0021903 063.3716 303.4696 15.60234605744658 CXO 1 25867U 99040B 11319.70833333 -.00000060 00000-0 00000+0 0 6673 2 25867 070.5645 020.9714 8712365 277.3685 357.3346 00.37806151 8347 ____________________________________________________________________ These 2-Line ...Continue Reading

[list_settings.list_name] Current TLEs

November 16th 2011 PST

HST 1 20580U 90037B 11317.87157937 .00003609 00000-0 25771-3 0 8873 2 20580 028.4683 118.4462 0003166 275.3438 084.7068 15.01797410982177 ISS (ZARYA) 1 25544U 98067A 11319.35907257 .00026540 00000-0 32156-3 0 4355 2 25544 051.6407 119.9061 0021886 060.9118 016.0525 15.60174326744517 CXO 1 25867U 99040B 11319.70833333 -.00000060 00000-0 00000+0 0 6673 2 25867 070.5645 020.9714 8712365 277.3685 357.3346 00.37806151 8347 ____________________________________________________________________ These 2-Line ...Continue Reading

[list_settings.list_name] Current TLEs

November 15th 2011 PST

HST 1 20580U 90037B 11317.87157937 .00003609 00000-0 25771-3 0 8873 2 20580 028.4683 118.4462 0003166 275.3438 084.7068 15.01797410982177 ISS (ZARYA) 1 25544U 98067A 11318.52559631 .00025455 00000-0 30931-3 0 4300 2 25544 051.6402 124.0980 0021874 057.3669 015.2049 15.60124735744383 CXO 1 25867U 99040B 11319.70833333 -.00000060 00000-0 00000+0 0 6673 2 25867 070.5645 020.9714 8712365 277.3685 357.3346 00.37806151 8347 ____________________________________________________________________ These 2-Line ...Continue Reading
  • This mailing list is a public mailing list - anyone may join or leave, at any time.
  • This mailing list is announce-only.

International Space Station (ISS) / Hubble Space Telescope (HST) / Chandra X-Ray Observatory Orbital Data via EMAIL

Privacy Policy:

Private list